GPS BIIF-10 (PRN 08)

Last updated on Wed Jun 24 2026 00:03:27 GMT+0000 (Coordinated Universal Time)

1 40730U 15033A 26172.70840303 -.00000065 00000+0 00000+0 0 9999 2 40730 53.9787 266.9000 0115111 30.2347 330.4614 2.00556021 80085
UTC large
Height (km)
Speed (km/s)
/
Latitude / Longitude
Inclination (degrees)
Orbital Period (minutes)
Azimuth
Elevation
Range (km)
Doppler Factor

Next 0 passes for location: London (51.5072 / 0.1276)

No passes found over London.
GPS BIIF-10 (PRN 08)